STARLINK-11084, 59717

Orbit data source: Space-Track

STARLINK-11084, 59717 is a payload satellite owned by SpaceX/Seattle (US) in LEO that was launched on Fri, 10 May 2024 UTC via an FALCON 9 launch vehicle from the Air Force Western Test Range (AFWTR). Payload-class satellites include a variety of spacecraft equipped with specific instruments for various scientific and technological missions. These include communications satellites like Starlink; space stations such as the ISS; scientific satellites like the Hubble; Earth observation satellites from companies like Planet Labs, Umbra, and HawkEye 360; GPS; miniature CubeSats for education and research; and military/defense satellites.

Loading next visibility...
Identifier
59717, 2024-088K
Orbit
LEO
Country
Flag of USUS
Related business
Manufacturer
SpaceX/Seattle
Mission
Operational Commercial Communications
Bus & Motor
STARLINK V2MD, Unknown motor
Mass
960 kg wet, ~910 kg dry
Launch date (UTC)
2024-05-10 (2 years ago)
Launch vehicle
FALCON 9
Launch site
Air Force Western Test Range (AFWTR)
Object type
Payload
Rocket body
Debris
Shape & HBR
Box + 2 Pan, 18.1 m
Radar Cross Section
36.964 m², Large (>1 m²)

Expand to show TLE details & history
Last TLE update: 13 hours ago

TLE from 13 hours ago
0 STARLINK-11084
1 59717U 24088K   25346.84096178  .00002323  00000-0  24013-4 0  9998
2 59717  53.1600  34.2575 0001039  77.3132 282.8002 15.69720235 92630
Epoch: 2025-12-12T20:10Z
TLE epoch observation values (Epoch: 2025-12-12T20:10:59.097Z)
Latitude
-0.00004°
Longitude
9.73443°
Altitude
360.458 km
Speed
7.694 km/s
True Right ascension
02h 17m 01s
True Declination
0° 00' 00"
Sunlit
Object was in full shadow at epoch
Visualization orbit readout
Latitude
Unknown
Longitude
Unknown
Altitude
Unknown
Speed
Unknown
Apparent Right ascension
Unknown
Apparent Declination
Unknown
Sunlit
N/A
Visualization observer readout
Local Sidereal Time
07:33:25
Azimuth
Unknown
Elevation
Unknown
Doppler factor
Unknown
Orbital elements
Apogee altitude
360.658 km
Perigee altitude
359.258 km
Semi-major axis
6,738.095 km
Eccentricity
0.0001
Inclination
53.16°
RAAN
34.2575°
Arg. of periapsis
77.3132°
True anomaly
282.78859°
Mean anomaly
282.8002°
Eccentric anomaly
282.79439°
Mean motion
3.92408 °/min
Orbital period
91.74 mins
BSTAR
0.000024013
Loading maneuver chart data...
Computing Atmospheric mass density...
Loading historical data...
Loading historical data...
Loading historical data...
Loading historical data...
Loading historical data...
Loading historical data...
Loading historical data...

Documentation

Showing up to 5 results
|